Torna al catalogo

METEOR 2-8 DEB

AttivoPO
NORAD 36340·DEBRIS·🇷🇺 Russia

Lanciato Mar 25, 1982 da Plesetsk Cosmodrome

Loading…

Prossimi Passaggi (prossime 24 ore)

TLE

AggiornatoSource: Space-Track

Epoca: Sep 12, 2026, 13:11 UTC

1 36340U 82025AA  26255.54986923  .00005734  00000-0  12984-2 0  9994
2 36340  82.5147 344.8452 0016694 102.8748 257.4318 14.55948192676323

Traccia METEOR 2-8 DEB in tempo reale con AllMySat

Download on the App Store